Stündliche Wetter La Bouille

Heute, 8 Mai, Samstag

Zeit Temperatur Niederschläge Wind Luftdruck Luftfeuchtigkeit
00:00 +7°C° 0 mm 3 m/S 751 mmHg 70%
01:00 +8°C° 0 mm 3 m/S 750 mmHg 70%
02:00 +7°C° 0 mm 4 m/S 749 mmHg 70%
03:00 +8°C° 0 mm 5 m/S 749 mmHg 70%
04:00 +8°C° 0.1 mm 5 m/S 748 mmHg 77%
05:00 +8°C° 0.1 mm 5 m/S 748 mmHg 84%
06:00 +9°C° 0 mm 5 m/S 748 mmHg 91%
07:00 +10°C° 0.3 mm 5 m/S 748 mmHg 92%
08:00 +10°C° 0.3 mm 6 m/S 747 mmHg 92%
09:00 +11°C° 0.3 mm 7 m/S 747 mmHg 92%
10:00 +14°C° 0 mm 7 m/S 747 mmHg 83%
11:00 +16°C° 0 mm 8 m/S 746 mmHg 74%
12:00 +18°C° 0 mm 8 m/S 746 mmHg 65%
13:00 +20°C° 0 mm 8 m/S 746 mmHg 65%
14:00 +21°C° 0 mm 7 m/S 745 mmHg 64%
15:00 +21°C° 0 mm 7 m/S 745 mmHg 63%
16:00 +20°C° 0 mm 6 m/S 745 mmHg 66%
17:00 +19°C° 0 mm 6 m/S 744 mmHg 69%
18:00 +17°C° 0 mm 5 m/S 744 mmHg 73%
19:00 +17°C° 0 mm 4 m/S 744 mmHg 78%
20:00 +14°C° 0 mm 4 m/S 744 mmHg 84%
21:00 +12°C° 0 mm 3 m/S 743 mmHg 90%
22:00 +12°C° 0 mm 3 m/S 743 mmHg 90%
23:00 +12°C° 0 mm 3 m/S 742 mmHg 90%

Morgen, 9 Mai, Sonntag

Zeit Temperatur Niederschläge Wind Luftdruck Luftfeuchtigkeit
00:00 +12°C° 0 mm 3 m/S 742 mmHg 91%
01:00 +12°C° 0.2 mm 3 m/S 741 mmHg 92%
02:00 +12°C° 0.2 mm 3 m/S 741 mmHg 94%
03:00 +12°C° 0.2 mm 3 m/S 740 mmHg 95%
04:00 +12°C° 0.3 mm 3 m/S 740 mmHg 96%
05:00 +13°C° 0.3 mm 3 m/S 740 mmHg 96%
06:00 +14°C° 0.3 mm 3 m/S 740 mmHg 96%
07:00 +15°C° 0.2 mm 4 m/S 740 mmHg 94%
08:00 +16°C° 0.2 mm 5 m/S 740 mmHg 91%
09:00 +17°C° 0.2 mm 5 m/S 740 mmHg 88%
10:00 +17°C° 0 mm 5 m/S 740 mmHg 84%
11:00 +19°C° 0 mm 5 m/S 739 mmHg 80%
12:00 +20°C° 0 mm 6 m/S 739 mmHg 75%
13:00 +20°C° 0.4 mm 6 m/S 739 mmHg 77%
14:00 +20°C° 0.4 mm 7 m/S 739 mmHg 79%
15:00 +20°C° 0.4 mm 7 m/S 738 mmHg 81%
16:00 +18°C° 1.1 mm 7 m/S 738 mmHg 82%
17:00 +17°C° 1.1 mm 7 m/S 738 mmHg 84%
18:00 +16°C° 1.1 mm 7 m/S 738 mmHg 85%
19:00 +15°C° 0.3 mm 6 m/S 738 mmHg 89%
20:00 +14°C° 0.3 mm 4 m/S 738 mmHg 92%
21:00 +13°C° 0.3 mm 3 m/S 738 mmHg 95%
22:00 +12°C° 1.6 mm 3 m/S 738 mmHg 95%
23:00 +12°C° 1.6 mm 3 m/S 739 mmHg 96%

übermorgen, 10 Mai, Montag

Zeit Temperatur Niederschläge Wind Luftdruck Luftfeuchtigkeit
00:00 +12°C° 1.6 mm 2 m/S 739 mmHg 96%
01:00 +11°C° 0.1 mm 3 m/S 739 mmHg 95%
02:00 +10°C° 0.1 mm 4 m/S 740 mmHg 94%
03:00 +8°C° 0.1 mm 5 m/S 740 mmHg 93%
04:00 +8°C° 0 mm 5 m/S 741 mmHg 92%
05:00 +9°C° 0 mm 5 m/S 741 mmHg 92%
06:00 +9°C° 0 mm 6 m/S 741 mmHg 92%
07:00 +10°C° 0 mm 7 m/S 742 mmHg 84%
08:00 +11°C° 0 mm 7 m/S 742 mmHg 76%
09:00 +12°C° 0 mm 8 m/S 743 mmHg 69%
10:00 +13°C° 0 mm 8 m/S 743 mmHg 65%
11:00 +15°C° 0 mm 8 m/S 743 mmHg 61%
12:00 +16°C° 0 mm 7 m/S 743 mmHg 56%
13:00 +16°C° 0.1 mm 7 m/S 743 mmHg 56%
14:00 +16°C° 0.1 mm 7 m/S 743 mmHg 55%
15:00 +16°C° 0.1 mm 6 m/S 743 mmHg 55%
16:00 +15°C° 0.2 mm 5 m/S 744 mmHg 62%
17:00 +14°C° 0.2 mm 4 m/S 744 mmHg 70%
18:00 +13°C° 0.2 mm 3 m/S 744 mmHg 77%
19:00 +12°C° 0.1 mm 3 m/S 744 mmHg 81%
20:00 +10°C° 0.1 mm 2 m/S 745 mmHg 84%
21:00 +9°C° 0.1 mm 2 m/S 745 mmHg 87%
22:00 +8°C° 0 mm 2 m/S 745 mmHg 89%
23:00 +8°C° 0 mm 2 m/S 745 mmHg 90%

11 Mai, Dienstag

Zeit Temperatur Niederschläge Wind Luftdruck Luftfeuchtigkeit
00:00 +7°C° 0 mm 2 m/S 745 mmHg 91%
01:00 +7°C° 0 mm 2 m/S 745 mmHg 91%
02:00 +6°C° 0 mm 2 m/S 745 mmHg 92%
03:00 +6°C° 0 mm 2 m/S 745 mmHg 92%
04:00 +7°C° 0 mm 2 m/S 745 mmHg 91%
05:00 +8°C° 0 mm 1 m/S 745 mmHg 90%
06:00 +9°C° 0 mm 1 m/S 745 mmHg 89%
07:00 +10°C° 0 mm 2 m/S 745 mmHg 83%
08:00 +11°C° 0 mm 3 m/S 745 mmHg 77%
09:00 +13°C° 0 mm 3 m/S 745 mmHg 71%
10:00 +13°C° 0.1 mm 4 m/S 745 mmHg 69%
11:00 +14°C° 0.1 mm 4 m/S 746 mmHg 66%
12:00 +14°C° 0.1 mm 4 m/S 746 mmHg 64%
13:00 +14°C° 0.1 mm 5 m/S 746 mmHg 65%
14:00 +15°C° 0.1 mm 5 m/S 746 mmHg 66%
15:00 +15°C° 0.1 mm 6 m/S 746 mmHg 67%
16:00 +14°C° 0.3 mm 5 m/S 746 mmHg 72%
17:00 +13°C° 0.3 mm 5 m/S 746 mmHg 77%
18:00 +12°C° 0.3 mm 4 m/S 747 mmHg 83%
19:00 +11°C° 0.1 mm 4 m/S 747 mmHg 86%
20:00 +10°C° 0.1 mm 3 m/S 748 mmHg 90%
21:00 +8°C° 0.1 mm 3 m/S 748 mmHg 93%
22:00 +8°C° 0 mm 3 m/S 748 mmHg 94%
23:00 +7°C° 0 mm 3 m/S 749 mmHg 94%

12 Mai, Mittwoch

Zeit Temperatur Niederschläge Wind Luftdruck Luftfeuchtigkeit
00:00 +5°C° 0 mm 3 m/S 749 mmHg 95%
01:00 +5°C° 0 mm 3 m/S 749 mmHg 95%
02:00 +4°C° 0 mm 3 m/S 749 mmHg 96%
03:00 +4°C° 0 mm 3 m/S 749 mmHg 96%
04:00 +4°C° 0 mm 3 m/S 749 mmHg 95%
05:00 +5°C° 0 mm 3 m/S 749 mmHg 94%
06:00 +5°C° 0 mm 3 m/S 749 mmHg 93%
07:00 +8°C° 0 mm 3 m/S 749 mmHg 85%
08:00 +10°C° 0 mm 4 m/S 749 mmHg 77%
09:00 +12°C° 0 mm 4 m/S 749 mmHg 69%
10:00 +13°C° 0.3 mm 4 m/S 748 mmHg 69%
11:00 +13°C° 0.3 mm 4 m/S 748 mmHg 68%
12:00 +14°C° 0.3 mm 4 m/S 748 mmHg 67%
13:00 +13°C° 0.5 mm 4 m/S 748 mmHg 71%
14:00 +13°C° 0.5 mm 4 m/S 748 mmHg 75%
15:00 +13°C° 0.5 mm 4 m/S 747 mmHg 79%
16:00 +12°C° 0.4 mm 3 m/S 748 mmHg 83%
17:00 +12°C° 0.4 mm 2 m/S 748 mmHg 88%
18:00 +11°C° 0.4 mm 1 m/S 748 mmHg 92%
19:00 +10°C° 0 mm 2 m/S 748 mmHg 93%
20:00 +9°C° 0 mm 2 m/S 748 mmHg 93%
21:00 +9°C° 0 mm 2 m/S 748 mmHg 94%
22:00 +9°C° 0 mm 2 m/S 747 mmHg 94%
23:00 +8°C° 0 mm 3 m/S 747 mmHg 95%

13 Mai, Donnerstag

Zeit Temperatur Niederschläge Wind Luftdruck Luftfeuchtigkeit
00:00 +8°C° 0 mm 3 m/S 747 mmHg 95%
01:00 +8°C° 0.2 mm 3 m/S 747 mmHg 96%
02:00 +8°C° 0.2 mm 3 m/S 746 mmHg 96%
03:00 +8°C° 0.2 mm 2 m/S 746 mmHg 97%
04:00 +8°C° 0.4 mm 3 m/S 746 mmHg 97%
05:00 +8°C° 0.4 mm 3 m/S 746 mmHg 97%
06:00 +8°C° 0.4 mm 3 m/S 746 mmHg 97%
07:00 +9°C° 0.3 mm 3 m/S 746 mmHg 94%
08:00 +9°C° 0.3 mm 2 m/S 746 mmHg 91%
09:00 +10°C° 0.3 mm 2 m/S 747 mmHg 88%
10:00 +12°C° 0.3 mm 2 m/S 747 mmHg 83%
11:00 +13°C° 0.3 mm 2 m/S 747 mmHg 77%
12:00 +14°C° 0.3 mm 2 m/S 746 mmHg 71%
13:00 +14°C° 0.3 mm 2 m/S 746 mmHg 69%
14:00 +13°C° 0.3 mm 3 m/S 746 mmHg 67%
15:00 +14°C° 0.3 mm 3 m/S 746 mmHg 65%
16:00 +14°C° 0.1 mm 2 m/S 746 mmHg 69%
17:00 +13°C° 0.1 mm 2 m/S 746 mmHg 73%
18:00 +13°C° 0.1 mm 2 m/S 746 mmHg 78%
19:00 +12°C° 0 mm 2 m/S 746 mmHg 81%
20:00 +9°C° 0 mm 2 m/S 747 mmHg 83%
21:00 +9°C° 0 mm 1 m/S 747 mmHg 86%
22:00 +9°C° 0 mm 1 m/S 747 mmHg 87%
23:00 +8°C° 0 mm 1 m/S 747 mmHg 88%
Mehr zeigen

Wir brauchen deine Erlaubnis

Meteoprog und unser Service Anbieter werden persönliche Daten aufbewahren, so wie Cookies, Geräte Bezeichnung oder ähnliche Technologien von deinem Gerät und Prozess, so wie Persönliche Daten Inhalte und Werbungen, genauso wie social Media und den Verkehr zu analysieren.

  • Aufbewahrung und/oder Zugang zu deiner Geräte Informationen.

    Cookies, Geräte Bezeichnung oder andere Informationen, können aufbewahrt oder Zugang zu deinem Gerät erhalten, für den Grund, der oben angegeben wird.

  • Personalisierte Werbung und Inhalte, Messungen, Einblick in das Publikum und Produkt Entwicklung.

    Werbungen und Inhalte können personalisiert werden, basierend auf ein Profil. Mehr Daten können besser personalisierte Werbungen und Inhalte hinzufügen. Werbung und Inhalte können gezeigt und gemessen werden. Einblicke über das Publikum, welche die Werbung gesehen haben und den Inhalt, können abgeleitet werden. So wie Daten können genutzt werden, um es zu verbessern oder die Benutzer Erfahrung zu verbessern das System und die Software.

Wenn du “Ich stimme zu” klickst, erlaubst du uns, die Cookies zu benutzen die Geräte Bezeichnung, den Web oder ähnliche Technologien zu benutzen. Deine Settings, können in deinem Gerät bei deinem Browser geändert werden.

Für den bestimmten Zweck, berechtigten Interessen beruhen darauf, mehr als auf den Inhalt. Du kannst mehr darüber in unseren Privaten und Cookie Politik lesen.